Location: Julian California
(33.0790°N, 116.6010°W)
Time: 16:20:23
(UTC-07:00)

Daily predictions for brighter satellites

Satellite Brightness Start Highest point End
(mag) Time Altitude Azimuth Time Altitude Azimuth Time Altitude Azimuth
SL-16 R/B 2.4 19:47:55 10° NNW 19:53:36 82° WSW 19:59:14 10° SSE
Okean-O 2.7 19:49:49 10° SSE 19:54:13 88° WSW 19:58:40 10° NNW
Cosmos 2266 Rocket 4.1 19:50:47 10° N 19:56:53 57° E 20:02:51 10° SSE
Cosmos 1633 3.2 19:53:55 10° NNW 19:57:23 57° W 20:00:48 10° S
Meteor 2-3 Rocket 3.7 19:57:49 10° N 20:03:28 84° E 20:09:03 10° S
Cosmos 2263 Rocket 2.3 19:58:00 10° SSW 20:03:33 81° WNW 20:09:08 10° NNE
H-2A R/B 3.4 19:59:27 10° SSW 20:04:00 39° W 20:08:35 10° NNW
DELTA 2 R/B (1) 4.3 19:58:36 10° W 20:04:02 53° NNW 20:09:29 10° ENE
X-37B 3.0 20:02:44 10° W 20:05:21 23° NNW 20:07:59 10° NNE
Cosmos 1943 4.3 20:01:52 10° N 20:06:38 28° ENE 20:11:21 10° ESE
Cosmos 1655 Rocket 4.0 20:00:39 10° N 20:06:53 84° E 20:13:05 10° S
Cosmos-2242 4.4 20:03:20 10° SSW 20:07:25 44° W 20:11:29 10° N
Meteor 2-16 Rocket 4.5 20:02:46 10° N 20:08:54 65° E 20:14:57 10° SSE
Meteor 2-21 Rocket 4.4 20:02:47 10° N 20:08:55 80° E 20:15:03 10° S
Cosmos 1869 3.4 20:05:15 10° S 20:09:09 81° W 20:13:01 10° N
CSL-04 Debris 4.2 20:03:52 10° SSE 20:09:19 85° ENE 20:14:45 10° NNW
Cosmos 1844 Rocket 3.9 20:06:21 10° SE 20:10:06 19° E 20:13:50 10° ENE
CZ-2C R/B 3.9 20:05:31 10° N 20:10:38 48° WNW 20:15:52 10° SW
H-2A R/B 1.7 20:09:48 10° WSW 20:11:28 21° S 20:12:53 12° SE
Meteor 1-4 Rocket 4.0 20:12:45 10° SSW 20:16:06 41° WNW 20:19:31 10° N
OBJECT-B 1.7 20:15:34 12° SE 20:18:10 30° ENE 20:21:03 10° NNE
USA 229 DEB 4.2 20:11:10 10° NNW 20:18:31 57° ENE 20:25:39 12° SE
USA 229 4.2 20:11:15 10° NNW 20:18:36 57° ENE 20:25:43 12° SE
ERS-2 2.5 20:18:06 10° N 20:21:42 68° WNW 20:25:17 10° SSW
Helios 1A Rocket 2.9 20:19:45 10° SSE 20:23:51 90° E 20:28:00 10° NNW
Cosmos 1763 Rocket 3.6 20:21:47 10° NNW 20:26:51 78° WSW 20:31:57 10° S
Meteor 2-15 4.4 20:22:21 10° S 20:28:19 70° E 20:34:20 10° NNE
Resurs 01 Rocket 3.4 20:27:23 13° E 20:29:05 16° ENE 20:31:44 10° NNE
CSL-04 Rocket 4.0 20:23:56 10° S 20:29:09 67° WSW 20:34:26 10° NNW
Lacrosse 5 rocket 1.5 20:24:56 10° NNW 20:29:14 69° NE 20:32:35 18° SE
Cosmos 841 Rocket 3.7 20:26:45 10° N 20:31:45 49° ENE 20:35:37 16° SE
SJ-6B 2.9 20:28:46 13° SSE 20:32:02 54° ENE 20:35:48 10° N
Cosmos 2221 2.4 20:29:23 10° S 20:33:35 66° E 20:37:52 10° NNE
Cosmos 1766 Rocket 3.7 20:31:43 10° N 20:36:06 76° W 20:40:29 10° S
NOSS 3-1 (A) 4.3 20:29:08 10° NNW 20:37:07 71° ENE 20:44:34 16° SE
Cosmos 482 Debris 3.8 20:39:39 10° NNW 20:41:25 27° NE 20:41:25 27° NE
MOS 1 4.5 20:39:34 16° SE 20:43:57 54° ENE 20:49:27 10° N
Cosmos 1174 3.7 20:44:02 10° NNW 20:47:28 45° ENE 20:48:23 34° ESE
USA 186 2.9 20:49:21 10° SSW 20:51:55 34° W 20:54:23 10° NNW
Nadezhda 2 Rocket 4.4 20:46:13 10° N 20:52:18 65° E 20:57:02 17° SSE
Cosmos 1570 Rocket 4.1 20:48:12 10° N 20:53:20 55° ENE 20:56:04 26° SE
Cosmos 1553 Rocket 3.9 20:48:29 10° S 20:54:25 60° E 21:00:28 10° NNE
Ariane Rocket 2.9 20:55:02 22° SSE 20:58:18 70° ENE 21:03:19 10° N
SPOT 3 Rocket 4.1 21:04:23 31° ESE 21:06:00 39° ENE 21:10:46 10° N
Cosmos 1417 Rocket 4.4 21:02:15 12° S 21:07:58 66° E 21:14:06 10° NNE
Cosmos 1603 3.8 21:04:24 10° NNW 21:10:04 76° WSW 21:13:25 25° S
Cosmos 1606 2.6 21:10:25 27° S 21:12:20 81° W 21:16:06 10° N
Cosmos 1814 Rocket 3.9 21:08:46 10° NNW 21:14:00 87° ENE 21:16:15 35° SSE
ARIANE 5 R/B 4.5 21:19:07 17° ENE 21:19:07 17° ENE 21:21:15 10° NNE
GENESIS II 4.3 21:15:16 10° NW 21:19:06 67° WSW 21:19:46 54° S
ASTRO E2 2.6 21:19:38 10° W 21:23:32 68° S 21:23:32 68° S
Cosmos 1933 4.0 21:26:46 41° NE 21:26:46 41° NE 21:29:48 10° NNE
Cosmos 1486 Rocket 4.0 21:24:38 10° SSW 21:29:56 82° WNW 21:35:17 10° NNE
Resurs 1-3 4.4 21:32:34 31° SSW 21:34:17 47° W 21:38:31 10° NNW
Cosmos 968 Rocket 4.1 21:29:40 10° SSW 21:34:49 56° WNW 21:39:59 10° N
Cosmos 921 Rocket 4.3 21:34:14 10° NNW 21:38:06 35° W 21:39:28 28° SW
Cosmos 1805 Rocket 3.6 21:34:38 10° N 21:38:37 66° NE 21:38:37 66° NE
X-37B 3.9 21:42:27 10° NNW 21:42:49 10° N 21:43:12 10° N
Terra 3.9 21:46:08 15° NE 21:46:08 15° NE 21:47:48 10° NNE
DELTA 2 R/B (1) 4.5 21:45:50 10° WNW 21:51:07 43° N 21:53:15 30° NE
Cosmos 1437 Rocket 4.4 21:52:15 26° WSW 21:53:20 31° WNW 21:56:47 10° NNW
Cosmos 1844 Rocket 3.6 21:48:14 10° SW 21:53:31 45° WNW 21:58:51 10° N
Meteor 1-26 Rocket 4.1 21:56:54 74° ESE 21:57:06 75° E 22:02:45 10° NNE
Cosmos 883 Rocket 4.4 22:02:55 57° SSW 22:04:20 84° W 22:10:41 10° N
Resurs 01 Rocket 2.7 22:04:57 37° WSW 22:05:13 38° W 22:09:21 10° NNW
Spot 2 Rocket 3.8 22:07:14 59° NNE 22:07:14 59° NNE 22:11:29 10° N
MetOp-B 4.2 22:06:44 65° SW 22:07:05 67° WSW 22:12:25 10° NNW
Lacrosse 5 rocket 4.1 22:06:26 10° W 22:07:57 12° WSW 22:08:13 11° WSW
Cosmos 1745 Rocket 4.2 22:02:18 10° NNW 22:08:24 65° W 22:09:46 51° SW
Cosmos 1709 Rocket 3.8 22:05:37 10° N 22:11:33 73° ENE 22:11:33 73° ENE
Cosmos 2315 Rocket 3.9 22:12:10 73° SSW 22:12:52 88° W 22:19:17 10° N
NOSS 3-3 (A) 3.8 22:20:48 72° NNE 22:20:48 72° NNE 22:26:21 10° NNE
NOSS 3-3 (C) 3.9 22:21:01 69° NNE 22:21:01 69° NNE 22:26:27 10° NNE
ATLAS 5 CENTAUR R/B 3.3 22:24:07 10° NNW 22:29:11 39° NE 22:29:11 39° NE
ERS-1 Rocket 3.9 22:31:21 44° N 22:31:21 44° N 22:34:46 10° N
SPOT 1/Viking Rocket 4.4 22:33:07 45° W 22:33:07 45° W 22:37:37 10° NNW
SL-4 R/B 4.0 22:36:31 10° NW 22:38:58 31° NNW 22:38:58 31° NNW
CZ-4C R/B 4.1 22:37:33 10° N 22:44:06 31° NE 22:45:05 30° ENE
Cosmos 2082 Rocket 4.3 22:56:09 10° NNE 22:58:24 16° NE 22:58:24 16° NE
Cosmos 2278 Rocket 3.6 23:20:17 33° N 23:20:17 33° N 23:23:29 10° NNE
Terra 4.1 23:25:00 21° NW 23:25:00 21° NW 23:26:46 10° NNW
